User: anonymous   Login
Location: Caltech
(34.1382°N, 118.1253°W)
Time: 11:44:39
(UTC-08:00)
Language:

FENGYUN 3A - Orbit

View from above orbital plane
View from above orbital plane
View from above satellite
View from above satellite

Ground track
Ground track

The orbit data is extracted from the following two-line orbital elements,

1 32958U 08026A   17057.56147667  .00000016  00000-0  27283-4 0  9998
2 32958  98.4214  91.6999 0008513 239.9785 120.0553 14.19651055453645
Epoch (UTC): 26 February 2017 13:28:31
Eccentricity: 0.0008513
inclination: 98.4214°
perigee height: 820 km
apogee height: 832 km
right ascension of ascending node: 91.6999°
argument of perigee: 239.9785°
revolutions per day: 14.19651055
mean anomaly at epoch: 120.0553°
orbit number at epoch: 45364

The dashed part of the orbit path shows where the satellite is in the earth's shadow,  

DLR